Regional Weather Roundup
Issued by NWS

Home | Current Version | Previous Version | Text Only | Print | Product List | Glossary On
Versions: 1 2 3 4 5 6 7 8 9 10 11 12 13 14 15 16 17 18 19 20 21 22 23 24 25 26 27 28 29 30 31 32 33 34 35 36 37 38 39 40 41 42 43 44 45 46 47 48 49 50
963
ASUS43 KTOP 270108
RWRKS

WEATHER ROUNDUP FOR KANSAS
NATIONAL WEATHER SERVICE GOODLAND KS
800 PM CDT MON JUN 26 2017

NOTE:  "FAIR" INDICATES FEW OR NO CLOUDS BELOW 12,000 FEET WITH NO
SIGNIFICANT WEATHER AND/OR OBSTRUCTIONS TO VISIBILITY.

KSZ001>006-013>018-027>032-041>047-270200-
NORTHWEST KANSAS

CITY           SKY/WX    TMP DP  RH WIND       PRES   REMARKS
GOODLAND       CLOUDY    73  60  63 E14       30.09F
HAYS           CLOUDY    80  65  59 NE12      30.04
HILL CITY      SUNNY     81  62  52 NE5       30.07F
RUSSELL        CLOUDY    82  62  50 N7        30.03S
$$

KSZ061>065-074>080-084>089-270200-
SOUTHWEST KANSAS

CITY           SKY/WX    TMP DP  RH WIND       PRES   REMARKS
DODGE CITY     SUNNY     80  63  55 SE7       30.05R
ELKHART          N/A     77  53  43 S7          N/A
GARDEN CITY    SUNNY     84  59  42 SE10      30.05S
GREAT BEND     CLOUDY    82  62  50 NE8       30.03R
LIBERAL        SUNNY     85  58  39 S7        30.05R
PRATT          PTCLDY    81  57  44 S8        30.03R
$$

KSZ066>073-081>083-090>101-270200-
SOUTHEAST KANSAS

CITY           SKY/WX    TMP DP  RH WIND       PRES   REMARKS
CHANUTE        PTCLDY    73  63  70 E13       30.05S
COFFEYVILLE    MOCLDY    78  66  66 NE12      30.02S
HUTCHINSON     PTCLDY    86  55  34 CALM      30.01R
MEDICINE LODGE   N/A     86  60  41 S5        30.00R
NEWTON         MOCLDY    71  65  81 E7        30.03R
PARSONS        MOCLDY    75  65  70 VRB6      30.05S
WICHITA INTL   CLEAR     83  60  45 VRB5      29.99S
WICHITA JABRA  PTCLDY    81  60  48 S8        29.99F
WICHITA MCCONL MOCLDY    83  59  44 S7        30.00S
WINFIELD       CLEAR     82  60  47 S8        30.02S
$$

KSZ007>012-019>026-033>040-048>060-102>105-270200-
NORTHEAST KANSAS

CITY           SKY/WX    TMP DP  RH WIND       PRES   REMARKS
CONCORDIA      CLEAR     73  62  68 E13       30.08R
EMPORIA        MOCLDY    74  62  66 E15       30.06R
LAWRENCE       RAIN      67  62  84 SW7       30.13R
MANHATTAN      MOCLDY    69  63  81 E12       30.08R
MARYSVILLE     CLEAR     66  63  88 SE8       30.10S
OLATHE IND     LGT RAIN  66  58  75 E6        30.11F
OLATHE EXE     CLOUDY    66  58  75 SE5       30.11F
SALINA         CLOUDY    75  59  57 E12       30.04R
TOPEKA BILLARD LGT RAIN  67  65  93 SE10      30.08F
TOPEKA FORBES  LGT RAIN  68  63  84 SE10      30.09S
$$




USA.gov is the U.S. government's official web portal to all federal, state and local government web resources and services.